Time,TemperatureF,DewpointF,PressureIn,WindDirection,WindDirectionDegrees,WindSpeedMPH,WindSpeedGustMPH,Humidity,HourlyPrecipIn,Conditions,Clouds,dailyrainin,SoftwareType,DateUTC
2015-09-05 00:12:00,60.3,58.0,30.26,WSW,256,0.0,0.0,92,0.00,,,0.00,weatherlink.com 1.10,2015-09-05 04:12:00,
2015-09-05 00:27:00,60.3,58.0,30.26,WSW,256,0.0,0.0,93,0.00,,,0.00,weatherlink.com 1.10,2015-09-05 04:27:00,
2015-09-05 00:42:00,60.3,58.0,30.26,WSW,256,0.0,0.0,93,0.00,,,0.00,weatherlink.com 1.10,2015-09-05 04:42:00,
2015-09-05 00:57:00,59.9,58.0,30.26,WSW,256,0.0,0.0,93,0.00,,,0.00,weatherlink.com 1.10,2015-09-05 04:57:00,
2015-09-05 01:13:00,59.3,57.0,30.26,WSW,256,0.0,0.0,93,0.00,,,0.00,weatherlink.com 1.10,2015-09-05 05:13:00,
2015-09-05 01:27:00,58.7,57.0,30.26,WSW,256,0.0,0.0,93,0.00,,,0.00,weatherlink.com 1.10,2015-09-05 05:27:00,
2015-09-05 01:42:00,58.2,56.0,30.26,WSW,256,0.0,0.0,93,0.00,,,0.00,weatherlink.com 1.10,2015-09-05 05:42:00,
2015-09-05 01:57:00,57.9,56.0,30.26,WSW,256,0.0,0.0,94,0.00,,,0.00,weatherlink.com 1.10,2015-09-05 05:57:00,
2015-09-05 02:12:00,57.3,56.0,30.26,WSW,256,0.0,0.0,94,0.00,,,0.00,weatherlink.com 1.10,2015-09-05 06:12:00,
2015-09-05 02:27:00,57.1,55.0,30.26,WSW,256,0.0,0.0,94,0.00,,,0.00,weatherlink.com 1.10,2015-09-05 06:27:00,
2015-09-05 02:42:00,56.6,55.0,30.26,WSW,256,0.0,0.0,94,0.00,,,0.00,weatherlink.com 1.10,2015-09-05 06:42:00,
2015-09-05 02:57:00,56.3,55.0,30.25,WSW,256,0.0,0.0,94,0.00,,,0.00,weatherlink.com 1.10,2015-09-05 06:57:00,
2015-09-05 03:13:00,55.8,54.0,30.25,WSW,256,0.0,0.0,94,0.00,,,0.00,weatherlink.com 1.10,2015-09-05 07:13:00,
2015-09-05 03:28:00,55.4,54.0,30.24,WSW,256,0.0,0.0,94,0.00,,,0.00,weatherlink.com 1.10,2015-09-05 07:28:00,
2015-09-05 03:43:00,55.0,54.0,30.25,WSW,256,0.0,0.0,95,0.00,,,0.00,weatherlink.com 1.10,2015-09-05 07:43:00,
2015-09-05 03:58:00,54.7,53.0,30.25,WSW,256,0.0,0.0,95,0.00,,,0.00,weatherlink.com 1.10,2015-09-05 07:58:00,
2015-09-05 04:13:00,54.6,53.0,30.25,WSW,256,0.0,0.0,95,0.00,,,0.00,weatherlink.com 1.10,2015-09-05 08:13:00,
2015-09-05 04:28:00,54.1,53.0,30.25,WSW,256,0.0,0.0,95,0.00,,,0.00,weatherlink.com 1.10,2015-09-05 08:28:00,
2015-09-05 04:43:00,53.7,52.0,30.25,WSW,256,0.0,0.0,95,0.00,,,0.00,weatherlink.com 1.10,2015-09-05 08:43:00,
2015-09-05 04:58:00,53.2,52.0,30.26,WSW,256,0.0,0.0,95,0.00,,,0.00,weatherlink.com 1.10,2015-09-05 08:58:00,
2015-09-05 05:13:00,53.1,52.0,30.26,WSW,256,0.0,0.0,95,0.00,,,0.00,weatherlink.com 1.10,2015-09-05 09:13:00,
2015-09-05 05:28:00,52.6,51.0,30.27,WSW,256,0.0,0.0,95,0.00,,,0.00,weatherlink.com 1.10,2015-09-05 09:28:00,
2015-09-05 05:43:00,52.3,51.0,30.27,WSW,256,0.0,0.0,95,0.00,,,0.00,weatherlink.com 1.10,2015-09-05 09:43:00,
2015-09-05 05:58:00,51.9,51.0,30.28,WSW,256,0.0,0.0,95,0.00,,,0.00,weatherlink.com 1.10,2015-09-05 09:58:00,
2015-09-05 06:13:00,51.8,51.0,30.29,WSW,256,0.0,0.0,95,0.00,,,0.00,weatherlink.com 1.10,2015-09-05 10:13:00,
2015-09-05 06:28:00,51.6,50.0,30.30,WSW,256,0.0,0.0,95,0.00,,,0.00,weatherlink.com 1.10,2015-09-05 10:28:00,
2015-09-05 06:43:00,51.9,51.0,30.31,WSW,256,0.0,0.0,96,0.00,,,0.00,weatherlink.com 1.10,2015-09-05 10:43:00,
2015-09-05 06:58:00,51.6,51.0,30.31,WSW,256,0.0,0.0,96,0.00,,,0.00,weatherlink.com 1.10,2015-09-05 10:58:00,
2015-09-05 07:13:00,51.9,51.0,30.31,WSW,256,0.0,0.0,96,0.00,,,0.00,weatherlink.com 1.10,2015-09-05 11:13:00,
2015-09-05 07:28:00,52.6,52.0,30.32,WSW,256,0.0,0.0,96,0.00,,,0.00,weatherlink.com 1.10,2015-09-05 11:28:00,
2015-09-05 07:43:00,53.5,52.0,30.32,WSW,256,0.0,0.0,96,0.00,,,0.00,weatherlink.com 1.10,2015-09-05 11:43:00,
2015-09-05 07:58:00,55.1,54.0,30.32,WSW,256,0.0,0.0,97,0.00,,,0.00,weatherlink.com 1.10,2015-09-05 11:58:00,
2015-09-05 08:13:00,57.8,57.0,30.32,NNW,343,0.0,0.0,97,0.00,,,0.00,weatherlink.com 1.10,2015-09-05 12:13:00,
2015-09-05 08:28:00,59.3,59.0,30.32,NNW,347,0.0,0.0,97,0.00,,,0.00,weatherlink.com 1.10,2015-09-05 12:28:00,
2015-09-05 08:43:00,60.7,60.0,30.32,NE,53,0.0,0.0,96,0.00,,,0.00,weatherlink.com 1.10,2015-09-05 12:43:00,
2015-09-05 08:58:00,62.2,59.0,30.32,NNE,30,0.0,0.0,90,0.00,,,0.00,weatherlink.com 1.10,2015-09-05 12:58:00,
2015-09-05 09:13:00,63.0,59.0,30.32,NE,36,0.0,0.0,87,0.00,,,0.00,weatherlink.com 1.10,2015-09-05 13:13:00,
2015-09-05 09:28:00,64.4,60.0,30.32,NE,44,0.0,0.0,84,0.00,,,0.00,weatherlink.com 1.10,2015-09-05 13:28:00,
2015-09-05 09:43:00,65.5,58.0,30.32,NNE,23,0.0,0.0,76,0.00,,,0.00,weatherlink.com 1.10,2015-09-05 13:43:00,
2015-09-05 09:58:00,66.7,57.0,30.32,NNE,12,0.0,0.0,72,0.00,,,0.00,weatherlink.com 1.10,2015-09-05 13:58:00,
2015-09-05 10:14:00,67.9,55.0,30.32,North,1,0.0,0.0,63,0.00,,,0.00,weatherlink.com 1.10,2015-09-05 14:14:00,